Location: Brier Hill
(41.1217°N, 80.6690°W)
Time: 09:42:21
(UTC+00:00)

Daily predictions for brighter satellites

Satellite Brightness Start Highest point End
(mag) Time Altitude Azimuth Time Altitude Azimuth Time Altitude Azimuth
Cosmos 1503 Rocket 4.1 23:17:25 10° NNW 23:22:39 56° ENE 23:27:46 10° SE
Cosmos 2278 Rocket 3.7 23:18:33 10° SW 23:23:46 37° WNW 23:28:59 10° N
Cosmos 1782 2.8 23:20:18 10° N 23:24:17 63° E 23:28:14 10° SSE
STARLINK-58 3.4 23:24:21 10° SW 23:27:50 59° SE 23:31:20 10° ENE
STARLINK-1007 4.0 23:25:52 10° SSW 23:28:30 27° SE 23:31:09 10° ENE
NOAA 11 4.5 23:23:42 10° SE 23:28:51 45° ENE 23:34:00 10° N
STARLINK-62 3.3 23:26:00 10° SW 23:29:30 63° SE 23:33:01 10° ENE
SL-4 R/B 2.7 23:25:33 10° NW 23:30:11 47° NNE 23:34:34 10° ESE
Cosmos 1802 Rocket 4.0 23:24:07 10° S 23:30:19 70° E 23:36:38 10° NNE
STARLINK-81 3.9 23:26:54 10° SSW 23:30:47 49° SE 23:34:40 10° ENE
STARLINK-34 3.3 23:27:27 10° SW 23:30:57 65° SE 23:34:28 10° ENE
YAOGAN 6 2.8 23:27:52 10° S 23:31:23 73° W 23:34:53 10° NNW
Cosmos 921 Rocket 4.2 23:27:56 10° SSE 23:31:29 23° E 23:35:04 10° NE
Cosmos 1862 3.9 23:28:06 10° SSE 23:31:46 35° E 23:35:25 10° NNE
STARLINK-54 3.7 23:28:40 10° SW 23:32:36 56° SE 23:36:33 10° ENE
STARLINK 1040 3.4 23:31:20 10° SSW 23:33:56 35° SE 23:36:34 10° ENE
STARLINK-77 3.8 23:30:10 10° SSW 23:34:04 52° SE 23:38:00 10° ENE
Lacrosse 4 Rocket 1.4 23:30:26 10° SSW 23:34:36 90° WNW 23:38:54 10° NNE
Tsikada Rocket 4.5 23:28:44 10° N 23:34:42 40° ENE 23:40:40 10° SE
OE (NEXTSAT) 4.4 23:31:20 10° WSW 23:34:48 74° SSE 23:38:17 10° ENE
STARLINK-25 3.8 23:31:49 10° SW 23:35:44 54° SE 23:39:40 10° ENE
YAOGAN 1 2.8 23:31:59 10° SE 23:36:07 47° ENE 23:40:17 10° N
Cosmos 292 Rocket 3.8 23:32:27 10° SSW 23:37:16 90° WNW 23:42:06 10° NNE
STARLINK-1010 3.7 23:34:41 10° SSW 23:37:33 34° SE 23:40:21 11° ENE
STARLINK-71 3.6 23:33:36 10° SW 23:37:34 63° SE 23:41:33 10° ENE
STARLINK-79 3.7 23:35:05 10° SW 23:39:02 59° SE 23:42:59 10° ENE
STARLINK-78 3.6 23:36:43 10° SW 23:40:41 61° SE 23:44:39 10° ENE
Abrixas rocket 1.9 23:38:06 10° WNW 23:41:04 85° SSW 23:44:01 10° ESE
STARLINK-57 3.6 23:38:25 10° SW 23:42:23 67° SE 23:46:24 10° ENE
STARLINK-1008 3.5 23:40:34 10° SSW 23:43:29 39° SE 23:46:06 12° ENE
STARLINK-49 3.6 23:40:00 10° SW 23:43:58 65° SE 23:47:57 10° ENE
SKYMED 2 3.8 23:39:46 10° N 23:44:07 74° WNW 23:48:26 10° SSW
STARLINK-1016 3.4 23:41:46 10° SSW 23:44:42 40° SE 23:47:13 13° ENE
Cosmos 1340 4.3 23:43:10 10° ESE 23:45:15 14° E 23:47:20 10° NE
Cosmos 1633 Rocket 3.6 23:41:27 10° SSE 23:45:22 34° E 23:49:18 10° NNE
STARLINK-1025 3.4 23:42:31 10° SSW 23:45:29 42° SE 23:48:02 13° ENE
STARLINK-27 3.6 23:41:40 10° SW 23:45:38 68° SE 23:49:33 11° NE
Envisat 4.4 23:40:56 10° S 23:45:45 44° W 23:50:38 10° NNW
STARLINK-1017 3.4 23:43:33 10° SSW 23:46:30 42° SE 23:48:58 14° ENE
STARLINK-74 3.5 23:43:17 10° SW 23:47:16 70° SE 23:51:08 11° NE
Cosmos 1238 Rocket 4.0 23:41:39 10° S 23:47:42 85° E 23:54:22 10° N
Meteor 1-10 Rocket 4.2 23:42:51 10° N 23:48:26 61° ENE 23:53:54 10° SSE
Cosmos 1666 Rocket 3.8 23:44:13 10° SSE 23:48:29 47° E 23:52:48 10° NNE
STARLINK-39 3.5 23:44:56 10° SW 23:48:56 72° SE 23:52:44 11° NE
STARLINK-1048 3.3 23:46:31 10° SSW 23:49:31 46° SE 23:51:56 15° ENE
STARLINK-1028 3.2 23:47:03 10° SSW 23:50:04 47° SE 23:52:26 15° ENE
STARLINK-1029 3.8 23:47:24 10° SSW 23:50:17 33° SE 23:52:22 16° ENE
BREEZE-M DEB (TANK) 3.7 23:39:04 10° WNW 23:50:20 86° NNE 23:53:39 10° ESE
STARLINK-1049 3.2 23:47:32 10° SSW 23:50:34 48° SE 23:52:55 15° ENE
STARLINK-31 3.5 23:46:34 10° SW 23:50:34 75° SE 23:54:19 12° NE
CZ-2D R/B 3.4 23:47:08 10° SSE 23:50:55 53° ENE 23:54:43 10° N
STARLINK-1021 3.2 23:48:07 10° SSW 23:51:09 49° SE 23:53:30 15° ENE
STARLINK-1051 3.2 23:48:35 10° SSW 23:51:39 49° SE 23:53:59 16° ENE
Cosmos 1943 Rocket 2.5 23:46:42 10° S 23:51:58 43° ESE 23:57:12 10° NE
STARLINK-1019 3.1 23:49:13 10° SSW 23:52:15 50° SE 23:54:33 16° ENE
STARLINK-69 3.5 23:48:24 10° SW 23:52:26 84° SE 23:56:10 12° NE
STARLINK-1012 3.1 23:50:20 10° SW 23:53:22 51° SE 23:55:38 16° ENE
STARLINK-21 3.5 23:49:54 10° SW 23:53:56 81° SE 23:57:33 13° NE
Cosmos 1346 Rocket 4.3 23:51:45 10° SE 23:54:12 16° E 23:54:57 15° ENE
STARLINK-1026 3.0 23:52:30 10° SW 23:55:34 55° SE 23:57:46 17° ENE
STARLINK-45 3.5 23:51:44 10° SW 23:55:44 88° NW 23:59:23 13° NE
STARLINK-1013 3.0 23:53:40 10° SW 23:56:45 56° SE 23:58:54 18° ENE
